Miscellaneous Local Product
Issued by NWS Hastings, NE

Home | Current Version | Previous Version | Graphics & Text | Print | Product List | Glossary On
Versions: 1 2 3 4 5 6 7 8 9 10 11 12 13 14 15 16 17 18 19 20 21 22 23 24 25 26 27 28 29 30 31 32 33 34 35 36 37 38 39 40 41 42 43 44 45 46 47 48 49 50
101
AXUS43 KGID 230702
MISGRI

GID CWA HOURLY WEATHER ROUNDUP
NATIONAL WEATHER SERVICE HASTINGS NE
200 AM CDT THU MAR 23 2017

NOTE: "FAIR" INDICATES FEW OR NO CLOUDS BELOW 12,000 FEET WITH NO
SIGNIFICANT WEATHER AND/OR OBSTRUCTIONS TO VISIBILITY.

...SOUTH CENTRAL NEBRASKA...

CITY           SKY/WX    TMP DP  RH WIND       PRES   REMARKS
GRAND ISLAND   CLOUDY    48  28  46 S14       30.01F
HASTINGS       CLOUDY    49  28  44 SE13      30.01F
KEARNEY        CLEAR     45  27  49 SE13      29.99F
ORD            PTCLDY    47  27  45 SE13      29.96F
YORK           CLOUDY    48  28  46 SE14G20   30.04F
AURORA         CLOUDY    49  27  42 SE13G18   30.02F
LEXINGTON      CLOUDY    45  34  67 SE12      29.95F
HOLDREGE       PTCLDY    43  29  58 SE10      29.97S
HEBRON         CLOUDY    50  29  44 SE9       30.04F

...NEBRASKA PANHANDLE...

CITY           SKY/WX    TMP DP  RH WIND       PRES   REMARKS
CHADRON        CLOUDY    53  37  54 S17G26    29.71F
ALLIANCE       CLOUDY    43  33  68 S20G25    29.79F
SCOTTSBLUFF    CLOUDY    48  36  63 E15       29.77F
SIDNEY         CLOUDY    43  35  73 SE8       29.82F

...WESTERN AND NORTH CENTRAL NEBRASKA...

CITY           SKY/WX    TMP DP  RH WIND       PRES   REMARKS
VALENTINE      PTCLDY    43  29  57 S16G26    29.87F
AINSWORTH      CLOUDY    41  29  64 S15       29.89F
ONEILL         PTCLDY    46  28  49 S14       29.95F
BROKEN BOW     MOCLDY    44  32  62 S13       29.94F
IMPERIAL       CLOUDY    40  34  79 SE13      29.85F WCI  32
NORTH PLATTE   PTCLDY    45  34  65 SE10      29.91F
MCCOOK         CLOUDY    42  35  76 SE10      29.91F

...EASTERN NEBRASKA...

CITY           SKY/WX    TMP DP  RH WIND       PRES   REMARKS
NORFOLK        CLOUDY    45  27  49 SE12      30.03F
SO SIOUX CITY  CLOUDY    42  26  53 SE13      30.10F
TEKAMAH        CLOUDY    44  25  47 SE13      30.12S
COLUMBUS       CLOUDY    48  27  43 SE13      30.06F
ALBION         CLOUDY    50  26  39 S15       30.01F
OMAHA EPPLEY   CLOUDY    45  23  42 SE18      30.12F
OFFUTT AFB     CLOUDY    45  23  41 SE14      30.12F
MILLARD        CLOUDY    47  28  47 SE10      30.11F
LINCOLN        CLOUDY    49  27  42 SE12      30.10S
NEBRASKA CITY  CLOUDY    47  17  29 SE14G21   30.11F
BEATRICE       CLOUDY    51  28  41 SE15      30.07F
FALLS CITY     CLOUDY    49  24  37 SE10      30.12F

...NORTHERN KANSAS...

CITY           SKY/WX    TMP DP  RH WIND       PRES   REMARKS
GOODLAND       CLOUDY    44  38  79 S24       29.85F
HILL CITY      PTCLDY    46  37  71 SE8       29.95F
NORTON         SUNNY     45  30  57 SE12      29.93
PHILLIPSBURG   CLEAR     48  34  57 E10       29.97F
HAYS             N/A     47  38  71 SE14      29.97F
RUSSELL        MOCLDY    48  37  65 SE13      29.97F
CONCORDIA      CLOUDY    51  31  46 SE12      30.03F
SALINA         CLOUDY    55  39  54 SE15      30.03F
TOPEKA         CLOUDY    52  32  46 E13       30.12F



USA.gov is the U.S. government's official web portal to all federal, state and local government web resources and services.